Vorticity
3 2 24 12 16 11 12 12 10 9 8 7 8 9 1 5 11 14 5 3 10 14 13 15 10 6 7 5 4 1 2 5 3 9 4 4 6 13 5 14 9 11 10 4 20 6 2 3 1 21 8 8 9 5
12 15 10 18 13 11 13 11 10 8 7 7 10 7 3 13 14 3 6 11 4 4 11 3 6 8 10 12 16 23 25 15 22 7 6 18 15 15 26 -1 34 5 37 28 23 32 29 3 24 4 9 5 7 5
8 10 14 18 11 14 13 10 9 8 6 10 7 8 7 16 5 6 14 5 11 13 12 8 10 9 8 16 28 24 19 15 2 14 1 9 8 20 4 11 4 11 8 4 -6 14 9 7 6 4 6 7 9 13
12 10 19 15 13 14 10 11 10 7 8 9 9 6 17 5 4 9 6 6 1 20 19 6 6 9 16 16 18 16 10 -3 -2 17 15 11 6 18 18 22 7 7 6 11 3 11 5 7 7 9 11 -3 9 10
10 15 18 13 14 11 12 10 8 7 9 8 8 15 2 7 10 5 7 8 9 -23 18 0 7 7 11 9 10 9 6 7 13 13 18 6 7 3 22 8 1 11 10 4 8 6 10 12 12 15 19 7 9 9
13 21 14 14 12 12 12 10 8 8 9 8 11 9 7 12 8 1 8 13 -2 30 16 -8 13 5 9 7 8 9 7 3 4 10 -1 1 15 -1 19 -4 11 9 5 6 7 8 7 20 18 9 5 11 13 10
21 15 13 13 12 12 11 10 8 10 8 15 8 8 9 8 6 7 1 5 13 24 1 -4 4 7 5 4 -2 1 4 9 19 17 15 14 24 8 10 13 3 3 5 6 10 9 6 11 9 0 21 16 16 13
16 13 12 11 12 11 10 10 11 12 12 7 11 8 9 9 3 10 14 15 19 -2 18 6 20 7 7 2 3 9 8 11 20 11 6 3 -1 -2 6 0 4 4 6 10 8 7 5 6 15 -4 4 12 11 10
13 11 12 11 12 10 10 10 12 7 10 9 7 9 9 -1 -3 19 19 8 4 5 1 40 -0 -1 9 14 4 2 11 0 14 10 5 -1 6 25 13 5 3 3 5 8 11 4 5 7 6 14 13 0 2 7
11 12 12 11 11 8 9 7 10 9 8 9 13 10 3 -8 19 18 6 6 -6 5 24 30 2 30 12 -1 16 -6 2 7 6 17 11 10 8 5 13 7 11 6 4 8 8 13 5 5 5 10 6 8 11 11
11 14 11 11 9 8 9 9 9 9 10 11 6 5 1 19 12 -11 5 -14 13 11 24 20 5 8 7 19 -8 7 12 8 8 16 -0 18 9 3 6 11 19 13 10 9 13 15 11 6 8 11 11 8 7 8
14 12 11 11 10 9 9 8 11 11 10 3 6 3 16 -15 -9 11 24 3 19 21 24 9 11 5 4 7 1 11 8 9 10 11 8 16 16 7 7 5 11 9 5 11 12 11 10 9 10 8 11 10 10 10
13 11 12 10 10 9 9 11 13 13 7 -4 20 -26 11 -4 11 11 17 14 20 18 10 9 12 11 7 -7 17 5 8 12 31 3 7 25 9 7 12 16 6 3 2 3 5 7 9 11 12 11 10 8 9 12
11 12 11 11 11 11 12 14 7 0 -11 2 -25 10 -0 14 22 16 14 8 21 15 14 15 11 -6 2 -2 15 6 23 5 6 9 15 16 8 12 10 9 11 9 8 12 11 20 9 6 5 6 9 10 10 9
12 13 11 11 13 14 11 5 4 4 6 -17 -1 -4 13 20 12 18 20 -2 24 19 13 9 4 10 -6 6 7 10 7 11 12 10 24 15 7 7 8 10 10 11 12 11 11 12 11 13 16 10 7 5 4 4
12 12 11 10 11 8 4 5 3 5 -9 -6 20 23 16 16 12 16 16 13 19 13 7 14 -11 14 5 13 7 14 9 14 13 15 15 16 7 6 6 6 7 7 6 6 9 11 12 10 10 11 14 17 16 13
13 13 11 10 7 5 8 0 7 -10 -15 5 23 20 10 16 13 15 11 21 15 4 12 -10 4 20 17 13 5 13 10 7 10 16 18 11 9 8 9 9 10 11 13 13 8 5 6 7 8 9 12 13 13 11
13 11 9 5 8 7 6 2 -13 10 18 11 16 14 11 11 14 11 10 13 -3 5 13 -17 8 6 11 10 18 3 11 11 12 16 15 9 8 9 9 10 9 8 8 10 15 14 10 8 4 5 6 7 2 5
12 9 8 6 8 5 -1 -5 -3 23 15 9 16 11 12 9 10 13 13 4 0 10 13 -0 6 14 1 9 18 13 11 10 13 13 12 10 9 11 10 7 7 8 11 13 10 10 13 13 12 12 13 11 9 12
11 8 9 7 7 -12 -16 14 22 11 13 12 10 10 12 10 10 10 12 12 8 12 1 2 6 13 12 8 8 10 10 10 12 15 11 11 11 8 6 6 10 16 17 14 14 13 12 11 13 13 14 13 12 12
13 11 11 8 -1 -6 24 -1 10 18 4 0 8 5 9 8 9 12 9 8 11 8 3 2 9 5 11 14 12 9 12 14 14 13 12 11 9 8 7 9 14 16 12 11 12 10 9 4 5 11 12 13 13 11
11 13 8 4 -12 -3 33 14 3 14 5 10 7 7 9 11 12 13 9 7 10 6 8 7 9 11 11 10 13 15 12 8 11 11 10 11 13 9 9 13 15 13 14 11 8 7 6 9 8 6 6 8 11 13
12 10 10 -3 -10 -6 36 6 15 11 8 11 8 9 13 6 12 12 6 8 7 8 10 12 12 12 13 13 13 13 14 12 11 9 11 11 11 13 15 17 17 15 8 6 3 8 9 7 5 5 6 6 7 7
13 6 -4 -11 8 17 19 14 10 1 19 9 9 8 11 8 14 9 8 9 10 9 12 13 11 13 12 10 10 11 12 11 11 14 16 17 17 16 17 16 11 8 3 4 7 5 7 7 8 9 6 5 6 7
-16 2 -15 18 9 29 9 7 4 6 12 5 6 3 7 10 13 5 3 12 9 11 12 11 9 8 10 10 11 11 12 13 14 15 17 16 18 19 15 19 4 3 11 9 3 8 4 6 4 2 4 3 4 5
-30 29 -4 45 12 8 22 8 17 7 13 12 7 6 10 7 -4 40 8 11 17 13 10 9 9 11 10 11 12 14 16 17 18 17 20 21 15 14 14 5 7 9 8 6 6 4 5 8 6 4 5 6 7 7
-29 41 12 20 19 -3 13 15 14 8 9 14 5 6 0 11 7 31 26 15 12 13 12 11 11 10 10 12 15 12 13 14 14 16 12 12 14 10 10 8 2 4 6 6 7 10 8 6 8 8 7 5 4 7
17 3 16 9 16 14 11 18 13 7 8 10 20 -1 4 7 25 26 13 13 12 13 12 11 8 11 15 17 10 15 17 18 14 8 7 10 10 6 5 11 9 7 10 11 8 3 -1 -4 -1 2 2 5 7 7
12 -5 20 22 6 14 8 19 -0 10 13 4 18 14 14 -3 28 15 12 14 16 15 14 13 13 12 17 6 5 6 7 9 10 12 14 13 15 11 7 8 9 8 8 6 1 -1 1 2 1 2 4 5 5 5
6 22 -0 29 14 10 7 11 14 6 15 19 20 21 -3 13 19 10 11 14 18 10 9 11 8 15 18 7 2 1 2 4 6 6 7 11 10 6 6 7 6 4 1 -0 1 1 2 4 6 9 9 8 7 5
13 13 -3 25 16 3 21 13 24 8 29 33 15 22 -4 20 12 13 11 2 6 10 14 13 12 13 15 12 6 4 6 6 6 8 8 6 6 4 4 2 2 3 2 2 1 4 9 9 9 7 7 6 5 4
13 9 14 12 23 -0 23 6 26 8 23 20 13 13 11 1 20 9 8 4 6 7 5 8 12 8 9 10 9 8 6 2 2 3 3 3 3 2 3 7 9 10 12 14 15 14 12 9 9 5 5 4 4 7
13 5 11 13 17 7 15 17 12 3 10 19 18 9 14 7 4 21 9 8 5 1 -0 2 4 6 6 5 4 4 3 3 2 1 2 4 7 10 10 11 13 13 14 14 12 12 8 7 4 3 5 5 5 7
Height
2919 2930 2940 2950 2961 2971 2983 2995 3007 3019 3029 3039 3048 3055 3063 3070 3075 3081 3087 3091 3097 3099 3102 3105 3107 3109 3110 3111 3112 3113 3115 3115 3118 3118 3120 3122 3123 3123 3124 3123 3122 3121 3122 3121 3122 3126 3135 3137 3139 3141 3143 3141 3140 3139
2920 2930 2940 2950 2960 2971 2983 2996 3008 3018 3029 3039 3047 3055 3063 3069 3075 3080 3087 3092 3096 3101 3103 3107 3110 3111 3112 3113 3112 3112 3112 3113 3115 3119 3121 3122 3123 3124 3126 3126 3124 3126 3127 3127 3130 3134 3135 3139 3140 3141 3142 3141 3141 3141
2922 2931 2941 2951 2961 2972 2984 2996 3008 3018 3029 3039 3046 3055 3063 3070 3077 3084 3089 3093 3097 3101 3106 3110 3111 3113 3114 3114 3115 3114 3113 3115 3115 3120 3120 3121 3123 3126 3128 3128 3129 3129 3130 3132 3135 3138 3140 3141 3142 3142 3142 3142 3142 3142
2922 2931 2941 2952 2963 2974 2986 2998 3008 3019 3030 3039 3047 3055 3064 3071 3076 3084 3089 3093 3097 3102 3103 3111 3113 3116 3116 3117 3117 3117 3118 3118 3120 3121 3121 3122 3123 3128 3128 3130 3131 3134 3135 3136 3138 3141 3142 3142 3143 3143 3143 3143 3144 3143
2922 2932 2943 2954 2965 2976 2988 2999 3010 3021 3031 3039 3047 3056 3063 3070 3077 3082 3089 3095 3098 3104 3103 3110 3116 3118 3120 3122 3121 3122 3122 3123 3123 3123 3124 3125 3127 3132 3134 3135 3135 3138 3139 3140 3142 3144 3145 3145 3145 3145 3145 3144 3145 3144
2923 2934 2945 2957 2968 2979 2990 3001 3012 3023 3032 3040 3048 3058 3066 3073 3079 3086 3090 3096 3100 3103 3104 3109 3116 3119 3123 3125 3125 3125 3126 3126 3127 3128 3128 3129 3131 3133 3137 3139 3142 3142 3144 3145 3146 3147 3146 3146 3146 3146 3147 3148 3147 3145
2926 2937 2948 2960 2971 2982 2992 3003 3013 3024 3033 3042 3051 3059 3066 3074 3080 3086 3093 3096 3099 3104 3105 3111 3117 3120 3125 3127 3128 3129 3130 3130 3131 3131 3132 3134 3135 3135 3138 3141 3146 3147 3147 3148 3149 3149 3148 3148 3148 3150 3153 3151 3148 3146
2929 2940 2951 2962 2974 2985 2995 3006 3017 3027 3036 3044 3052 3060 3068 3076 3083 3088 3092 3097 3101 3105 3107 3110 3116 3123 3126 3129 3130 3131 3133 3134 3135 3136 3137 3139 3141 3140 3144 3146 3148 3150 3150 3150 3151 3150 3150 3150 3150 3150 3151 3152 3150 3148
2932 2944 2955 2966 2977 2989 2999 3010 3020 3028 3037 3044 3052 3061 3069 3076 3084 3088 3094 3100 3104 3108 3108 3110 3112 3119 3125 3128 3131 3134 3135 3136 3139 3139 3140 3143 3142 3145 3148 3149 3150 3151 3152 3151 3151 3152 3153 3153 3152 3151 3150 3149 3149 3148
2936 2948 2959 2970 2982 2992 3001 3012 3022 3030 3039 3047 3056 3064 3073 3080 3086 3091 3097 3102 3105 3106 3107 3111 3114 3117 3124 3128 3132 3135 3137 3139 3142 3143 3143 3144 3145 3147 3149 3150 3152 3153 3153 3153 3152 3152 3153 3153 3153 3153 3152 3150 3149 3148
2941 2953 2963 2975 2985 2994 3005 3015 3024 3033 3041 3049 3056 3064 3073 3081 3087 3093 3097 3102 3105 3106 3108 3112 3116 3118 3126 3130 3131 3135 3137 3140 3143 3145 3145 3146 3148 3149 3150 3151 3152 3153 3153 3153 3153 3154 3154 3154 3153 3153 3152 3152 3151 3149
2946 2957 2968 2979 2989 2999 3009 3019 3027 3035 3044 3053 3061 3069 3076 3085 3091 3094 3097 3101 3102 3104 3107 3111 3115 3120 3124 3128 3132 3135 3136 3139 3141 3142 3144 3144 3147 3148 3150 3151 3152 3153 3153 3153 3154 3154 3154 3154 3153 3153 3152 3152 3151 3150
2951 2962 2973 2984 2994 3004 3014 3023 3033 3043 3050 3059 3067 3072 3080 3085 3088 3090 3092 3096 3099 3102 3106 3109 3115 3122 3126 3129 3131 3134 3135 3138 3139 3141 3143 3143 3145 3147 3149 3151 3152 3153 3154 3154 3154 3154 3154 3154 3154 3153 3153 3152 3151 3150
2956 2968 2979 2989 2999 3008 3018 3027 3035 3043 3052 3059 3065 3072 3078 3082 3084 3087 3091 3095 3098 3101 3106 3111 3115 3119 3124 3128 3130 3133 3136 3137 3139 3140 3141 3142 3144 3147 3149 3150 3151 3153 3154 3154 3154 3154 3154 3154 3154 3154 3153 3153 3152 3151
2962 2973 2983 2994 3003 3012 3021 3029 3039 3048 3052 3060 3066 3072 3075 3079 3082 3086 3091 3095 3099 3103 3107 3111 3117 3122 3125 3128 3130 3132 3134 3136 3137 3138 3139 3141 3144 3146 3148 3150 3152 3153 3153 3153 3154 3153 3153 3153 3153 3153 3153 3153 3152 3151
2968 2978 2988 2997 3007 3016 3024 3033 3042 3050 3056 3062 3066 3071 3075 3080 3083 3087 3091 3095 3100 3104 3109 3114 3117 3122 3125 3127 3129 3130 3133 3135 3136 3135 3137 3140 3143 3146 3148 3150 3152 3152 3153 3153 3153 3153 3153 3153 3152 3152 3151 3151 3150 3149
2974 2981 2991 3001 3011 3020 3029 3038 3045 3052 3058 3062 3067 3072 3076 3081 3084 3088 3092 3096 3101 3106 3109 3113 3117 3120 3123 3126 3129 3131 3132 3133 3133 3135 3138 3141 3143 3146 3147 3149 3150 3151 3152 3153 3153 3153 3153 3153 3152 3152 3151 3150 3149 3148
2979 2987 2996 3004 3015 3024 3032 3041 3048 3053 3059 3064 3069 3073 3077 3082 3085 3089 3093 3098 3103 3106 3110 3113 3116 3118 3121 3123 3125 3128 3129 3131 3133 3136 3138 3140 3142 3144 3146 3148 3149 3150 3151 3152 3153 3153 3153 3153 3152 3152 3151 3151 3149 3148
2985 2993 3002 3010 3020 3029 3036 3044 3050 3054 3060 3066 3070 3074 3078 3082 3086 3091 3094 3097 3101 3106 3111 3113 3116 3118 3120 3122 3124 3126 3128 3130 3132 3134 3137 3140 3142 3145 3146 3148 3149 3150 3151 3151 3152 3153 3152 3152 3152 3151 3151 3150 3148 3147
2991 2999 3007 3016 3025 3033 3038 3046 3051 3057 3062 3067 3072 3076 3080 3084 3087 3091 3095 3100 3104 3107 3110 3112 3114 3116 3119 3122 3124 3126 3127 3129 3131 3133 3136 3139 3142 3144 3146 3147 3148 3149 3150 3150 3151 3152 3153 3152 3151 3151 3150 3150 3148 3147
2998 3005 3013 3021 3028 3036 3039 3045 3052 3058 3062 3068 3073 3077 3081 3085 3089 3092 3096 3099 3103 3107 3110 3111 3114 3116 3119 3121 3123 3124 3126 3129 3131 3133 3136 3138 3141 3143 3145 3146 3147 3148 3149 3150 3152 3152 3153 3153 3153 3152 3151 3150 3148 3146
3001 3010 3017 3024 3031 3037 3043 3047 3053 3058 3065 3069 3074 3078 3081 3084 3088 3092 3095 3099 3102 3105 3108 3111 3113 3115 3118 3120 3121 3124 3126 3128 3130 3132 3134 3137 3140 3141 3142 3144 3146 3148 3150 3151 3153 3154 3154 3154 3153 3152 3151 3149 3148 3145
3008 3015 3022 3028 3035 3040 3046 3051 3054 3059 3064 3069 3073 3076 3080 3083 3087 3091 3095 3099 3101 3104 3107 3110 3112 3114 3117 3119 3121 3123 3126 3128 3130 3132 3134 3136 3138 3140 3142 3144 3147 3150 3151 3153 3154 3155 3155 3155 3154 3153 3151 3149 3148 3145
3012 3018 3025 3031 3034 3037 3043 3048 3054 3059 3062 3066 3071 3075 3078 3082 3087 3090 3094 3097 3100 3102 3105 3108 3111 3114 3116 3118 3121 3123 3126 3127 3129 3131 3133 3135 3137 3139 3142 3144 3148 3151 3153 3154 3155 3155 3155 3156 3156 3154 3151 3149 3148 3145
3015 3022 3026 3028 3033 3038 3042 3047 3052 3057 3062 3065 3069 3072 3076 3082 3085 3088 3091 3094 3097 3100 3103 3106 3110 3113 3115 3117 3119 3121 3123 3126 3127 3129 3131 3134 3136 3139 3142 3146 3149 3151 3152 3154 3155 3155 3155 3155 3155 3153 3151 3150 3148 3145
3015 3016 3021 3023 3031 3038 3041 3046 3049 3054 3058 3062 3067 3071 3076 3080 3084 3085 3087 3090 3094 3098 3101 3105 3108 3111 3113 3116 3118 3120 3123 3125 3127 3129 3131 3134 3136 3139 3142 3146 3149 3151 3152 3153 3155 3155 3155 3154 3153 3152 3150 3148 3146 3144
3011 3014 3018 3024 3029 3034 3040 3044 3049 3053 3056 3060 3063 3069 3074 3078 3080 3082 3085 3088 3092 3096 3100 3104 3107 3110 3112 3115 3117 3120 3123 3125 3128 3130 3133 3136 3139 3141 3144 3147 3149 3151 3152 3153 3153 3153 3153 3153 3151 3150 3148 3146 3144 3141
3010 3014 3020 3025 3029 3034 3039 3043 3046 3050 3054 3058 3063 3068 3072 3075 3078 3080 3083 3087 3090 3095 3099 3103 3107 3110 3112 3115 3118 3121 3124 3126 3129 3132 3135 3138 3141 3143 3145 3147 3148 3150 3151 3151 3151 3151 3150 3149 3148 3146 3144 3141 3139 3136
3011 3016 3020 3024 3029 3033 3037 3041 3044 3047 3053 3057 3061 3066 3069 3073 3076 3079 3082 3086 3090 3093 3096 3100 3104 3107 3111 3115 3118 3121 3125 3128 3131 3133 3134 3137 3140 3142 3144 3145 3146 3147 3147 3147 3148 3147 3146 3145 3143 3141 3139 3137 3134 3130
3011 3015 3019 3022 3026 3028 3031 3036 3042 3047 3051 3055 3060 3065 3069 3073 3076 3079 3082 3086 3089 3093 3097 3100 3103 3106 3110 3113 3117 3120 3123 3125 3129 3132 3135 3137 3138 3140 3141 3142 3143 3143 3143 3143 3142 3141 3139 3138 3136 3134 3132 3129 3126 3122
3010 3014 3018 3020 3023 3028 3032 3035 3039 3043 3048 3053 3057 3063 3068 3071 3074 3078 3080 3084 3088 3092 3095 3098 3101 3104 3108 3111 3114 3118 3121 3124 3127 3129 3131 3133 3134 3136 3137 3137 3138 3137 3137 3136 3135 3133 3132 3130 3128 3126 3124 3121 3117 3113
3010 3013 3017 3020 3023 3028 3030 3034 3037 3042 3045 3049 3054 3059 3064 3067 3072 3076 3079 3082 3085 3088 3092 3096 3099 3102 3106 3109 3112 3115 3118 3120 3123 3124 3126 3128 3130 3131 3131 3131 3131 3130 3129 3128 3128 3127 3126 3124 3122 3119 3117 3114 3110 3106
3009 3012 3015 3018 3022 3025 3028 3032 3035 3040 3043 3046 3050 3054 3059 3063 3067 3071 3075 3079 3083 3086 3089 3094 3097 3100 3103 3106 3109 3110 3112 3114 3116 3118 3121 3122 3124 3124 3124 3124 3124 3123 3123 3122 3121 3120 3119 3117 3115 3112 3109 3106 3102 3098